Find Starlink 11119

NORAD ID: 60121 Int'l Des: 2024-118 Owner: SPXS Country: US Constellation: starlink operational
又名: STARLINK-11119 [DTC] celestrak
LEOCIRCULAR

当前视图

正在加载3D地球...

About Starlink 11119

Starlink 11119 (NORAD 60121) is a starlink constellation satellite (v2 mini d2c) launched Jun 24, 2024 by SPXS of US. It operates in LEO, CIRCULAR orbit with a mass of 960.00 kg.

即将过境

Passes for default location (London). Set your location on the main map for personalized predictions.

高度历史

Loading altitude history...

两行轨道根数

1 60121U 24118J 26265.53558798 .00000552 00000-0 94169-5 0 9993
2 60121 53.1586 330.6252 0001052 89.1643 270.9496 15.69701557128914
Epoch: Sep 22, 2026 • Age: 14 hours

当前状态

高度 361.0 km
远地点 / 近地点 N/A
速度 7.70 km/s
星下点 29.97°N, 50.3°W
发射日期 Jun 24, 2024
运行时间 2.2 years
类型 internet

技术详情

分类 Payload
质量 960.00 kg
干质量 910.00 kg
长度 0.30 m
跨度 29.00 m
形状 ? Box + pan
制造商 SPXS
平台类型 Starlink V2MD
阶段状态 In Orbit
所有者/国家 SPXS/US

Most Searched